Location: Abraham Lincoln Continuation High School
(33.9711°N, 117.3662°W)
Time: 05:33:49
(UTC+00:00)

Lacrosse 5 - Pass Details

Date: 21 January 2021
Orbit: 715 x 724 km, 57.0° (Epoch: 01 March)

Event Time Altitude Azimuth Distance (km) Brightness Sun altitude
Rises 01:52:53 0° 334° (NNW) 3,119 5.3 -9.4°
Reaches altitude 10° 01:56:04 10° 354° (N) 2,197 4.3 -10.0°
Maximum altitude 01:59:22 17° 35° (NE) 1,752 3.4 -10.7°
Enters shadow 02:01:19 14° 62° (ENE) 1,916 3.4 -11.1°
